Weather History for KBYI - October, 2011

Change the Weather History Date:

Sunday, October 16, 2011

  Actual Average Record
Temperature  
Mean Temperature 55 °F 48 °F  
Max Temperature 67 °F 61 °F 81 °F (1961)
Min Temperature 42 °F 34 °F 18 °F (1966)
Degree Days  
Heating Degree Days 10 17  
Month to date heating degree days 183 237  
Since 1 July heating degree days 264 507  
Cooling Degree Days 0 0  
Month to date cooling degree days 7 0  
Year to date cooling degree days 397 365  
Growing Degree Days 4 (Base 50)    
Moisture  
Dew Point 44 °F    
Average Humidity 68    
Maximum Humidity 93    
Minimum Humidity 42    
Precipitation  
Precipitation 0.20 in 0.03 in 0.31 in (2012)
Month to date precipitation 1.37 0.37  
Year to date precipitation 8.35 7.68  
Sea Level Pressure  
Sea Level Pressure 30.00 in    
Wind  
Wind Speed 9 mph (West)    
Max Wind Speed 24 mph    
Max Gust Speed 35 mph    
Visibility 9 miles    
Events Rain    
T = Trace of Precipitation, MM = Missing Value Source: NWS Daily Summary

Daily Weather History Graph

Daily Weather History Graph

Search for Another Location

Airport or City:

Trip Planner

Search our weather history database for the weather conditions in past years. The results will help you decide how hot, cold, wet, or windy it might be!

Date:

Astronomy

Oct. 16, 2011 Rise Set
Actual Time 7:49 AM MDT 6:51 PM MDT
Civil Twilight 7:20 AM MDT 7:19 PM MDT
Nautical Twilight 6:47 AM MDT 7:52 PM MDT
Astronomical Twilight 6:15 AM MDT 8:25 PM MDT
Moon 9:35 PM MDT (10/16) 12:15 PM MDT (10/16)
Length of Visible Light 11h 59m
Length of Day
11h 02m
Waning Gibbous, 82% of the Moon is Illuminated
Oct 16
Waning Gibbous
Oct 19
Last Quarter
Oct 26
New
Nov 2
First Quarter
Nov 10
Full

Hourly Weather History & Observations

Time (MDT) Temp. Windchill Dew Point Humidity Pressure Visibility Wind Dir Wind Speed Gust Speed Precip Events Conditions
12:53 AM 46.9 °F - 43.0 °F 86% 29.95 in 10.0 mi SSW 4.6 mph - N/A   Clear
1:53 AM 46.9 °F - 43.0 °F 86% 29.94 in 10.0 mi SSW 6.9 mph - N/A   Clear
2:53 AM 48.0 °F - 42.1 °F 80% 29.95 in 10.0 mi SW 3.5 mph - N/A   Clear
3:53 AM 46.0 °F - 41.0 °F 83% 29.94 in 10.0 mi Calm Calm - N/A   Clear
4:53 AM 46.0 °F 43.9 °F 41.0 °F 83% 29.94 in 10.0 mi SSW 4.6 mph - N/A   Clear
5:53 AM 44.1 °F - 41.0 °F 89% 29.94 in 10.0 mi Calm Calm - N/A   Clear
6:53 AM 44.1 °F 41.5 °F 41.0 °F 89% 29.96 in 10.0 mi ENE 4.6 mph - N/A   Clear
7:53 AM 42.1 °F - 39.9 °F 92% 29.97 in 10.0 mi Calm Calm - N/A   Clear
8:53 AM 48.0 °F - 44.1 °F 86% 29.97 in 10.0 mi Calm Calm - N/A   Clear
9:53 AM 48.0 °F - 44.1 °F 86% 29.99 in 10.0 mi Calm Calm - N/A   Clear
10:53 AM 54.0 °F - 46.9 °F 77% 29.99 in 10.0 mi Calm Calm - N/A   Clear
11:53 AM 57.0 °F - 46.9 °F 69% 29.97 in 10.0 mi Calm Calm - N/A   Clear
12:42 PM 62.6 °F - 44.6 °F 52% 30.02 in 1.8 mi West 9.2 mph - N/A   Haze
12:53 PM 62.6 °F - 44.6 °F 52% 30.03 in 1.5 mi WSW 10.4 mph - N/A   Haze
1:13 PM 66.2 °F - 42.8 °F 43% 30.02 in 3.0 mi West 11.5 mph 17.3 mph N/A   Haze
1:53 PM 66.0 °F - 43.0 °F 43% 29.95 in 10.0 mi WNW 16.1 mph 21.9 mph N/A   Scattered Clouds
2:53 PM 64.0 °F - 48.0 °F 56% 29.95 in 10.0 mi West 16.1 mph 21.9 mph N/A   Partly Cloudy
3:53 PM 63.0 °F - 48.9 °F 60% 29.96 in 10.0 mi WNW 12.7 mph 19.6 mph N/A   Clear
4:53 PM 62.1 °F - 48.0 °F 60% 29.98 in 10.0 mi West 9.2 mph - N/A   Overcast
5:29 PM 55.4 °F - 46.4 °F 72% 30.06 in 9.0 mi NW 15.0 mph 29.9 mph 0.00 in Rain Light Rain
5:53 PM 54.0 °F - 44.1 °F 69% 30.04 in 10.0 mi NW 25.3 mph 33.4 mph 0.01 in Rain Light Rain
6:53 PM 48.9 °F - 46.9 °F 93% 30.10 in 6.0 mi West 11.5 mph - 0.08 in Rain Rain
7:53 PM 48.0 °F - 46.0 °F 93% 30.11 in 10.0 mi SSW 11.5 mph - 0.10 in Rain Light Rain
8:53 PM 48.0 °F - 45.0 °F 89% 30.07 in 10.0 mi SW 13.8 mph - 0.01 in   Overcast
9:53 PM 48.9 °F - 44.1 °F 83% 30.09 in 10.0 mi West 15.0 mph - N/A   Scattered Clouds
10:53 PM 48.9 °F - 44.1 °F 83% 30.09 in 10.0 mi West 12.7 mph 23.0 mph N/A   Mostly Cloudy
11:53 PM 48.9 °F - 45.0 °F 86% 30.09 in 10.0 mi West 15.0 mph 20.7 mph N/A   Mostly Cloudy